SCP
0 0 0 0 0 0 0 0 0 0 0 0 0 0 0 0 0 0 0 0 0 0 0 0 0 0 0 0 0 0 0 0 0 0 0 0 0 0 0 0 0 0 0
0 0 0 0 0 0 0 0 0 0 0 0 0 0 0 0 0 0 0 0 0 0 0 0 0 0 0 0 0 0 0 0 0 0 0 0 0 0 0 0 0 0 0
0 0 0 0 0 0 0 0 0 0 0 0 0 0 0 0 0 0 0 0 0 0 0 0 0 0 0 0 0 0 0 0 0 0 0 0 0 0 0 0 0 0 0
0 0 0 0 0 0 0 0 0 0 0 0 0 0 0 0 0 0 0 0 0 0 0 0 0 0 0 0 0 0 0 0 0 0 0 0 0 0 0 0 0 0 0
0 0 0 0 0 0 0 0 0 0 0 0 0 0 0 0 0 0 0 0 0 0 0 0 0 0 0 0 0 0 0 0 0 0 0 0 0 0 0 0 0 0 0
0 0 0 0 0 0 0 0 0 0 0 0 0 0 0 0 0 0 0 0 0 0 0 0 0 0 0 0 0 0 0 0 0 0 0 0 0 0 0 0 0 0 0
0 0 0 0 0 0 0 0 0 0 0 0 0 0 0 0 0 0 0 0 0 0 0 0 0 0 0 0 0 0 0 0 0 0 0 0 0 0 0 0 0 0 0
0 0 0 0 0 0 0 0 0 0 0 0 0 0 0 0 0 0 0 0 0 0 0 0 0 0 0 0 0 0 0 0 0 0 0 0 0 0 0 0 0 0 0
0 0 0 0 0 0 0 0 0 0 0 0 0 0 0 0 0 0 0 0 0 0 0 0 0 0 0 0 0 0 0 0 0 0 0 0 0 0 0 0 0 0 0
0 0 0 0 0 0 0 0 0 0 0 0 0 0 0 0 0 0 0 0 0 0 0 0 0 0 0 0 0 0 0 0 0 0 0 0 0 0 0 0 0 0 0
0 0 0 0 0 0 0 0 0 0 0 0 0 0 0 0 0 0 0 0 0 0 0 0 0 0 0 0 0 0 0 0 0 0 0 0 0 0 0 0 0 0 0
0 0 0 0 0 0 0 0 0 0 0 0 0 0 0 0 0 0 0 0 0 0 0 0 0 0 0 0 0 0 0 0 0 0 0 0 0 0 0 0 0 0 0
0 0 0 0 0 0 0 0 0 0 0 0 0 0 0 0 0 0 0 0 0 0 0 0 0 0 0 0 0 0 0 0 0 0 0 0 0 0 0 0 0 0 0
0 0 0 0 0 0 0 0 0 0 0 0 0 0 0 0 0 0 0 0 0 0 0 0 0 0 0 0 0 0 0 0 0 0 0 0 0 0 0 0 0 0 0
0 0 0 0 0 0 0 0 0 0 0 0 0 0 0 0 0 0 0 0 0 0 0 0 0 0 0 0 0 0 0 0 0 0 0 0 0 0 0 0 0 0 0
0 0 0 0 0 0 0 0 0 0 0 0 0 0 0 0 0 0 0 0 0 0 0 0 0 0 0 0 0 0 0 0 0 0 0 0 0 0 0 0 0 0 0
0 0 0 0 0 0 0 0 0 0 0 0 0 0 0 0 0 0 0 0 0 0 0 0 0 0 0 0 0 0 0 0 0 0 0 0 0 0 0 0 0 0 0
0 0 0 0 0 0 0 0 0 0 0 0 0 0 0 0 0 0 0 0 0 0 0 0 0 0 0 0 0 0 0 0 0 0 0 0 0 0 0 0 0 0 0
0 0 0 0 0 0 0 0 0 0 0 0 0 0 0 0 0 0 0 0 0 0 0 0 0 0 0 0 0 0 0 0 0 0 0 0 0 0 0 0 0 0 0
0 0 0 0 0 0 0 0 0 0 0 0 0 0 0 0 0 0 0 0 0 0 0 0 0 0 0 0 0 0 0 0 0 0 0 0 0 0 0 0 0 0 0
0 0 0 0 0 0 0 0 0 0 0 0 0 0 0 0 0 0 0 0 0 0 0 0 0 0 0 0 0 0 0 0 0 0 0 0 0 0 0 0 0 0 0
0 0 0 0 0 0 0 0 0 0 0 0 0 0 0 0 0 0 0 0 0 0 0 0 0 0 0 0 0 0 0 0 0 0 0 0 0 0 0 0 0 0 0
0 0 0 0 0 -0 -0 0 0 0 0 0 0 0 0 0 0 0 0 0 0 0 0 0 0 0 0 0 0 0 0 0 0 0 0 0 0 0 0 0 0 0 0
0 0 0 0 0 -0 -0 0 0 0 0 0 0 0 0 0 0 0 0 0 0 0 0 0 0 0 0 0 0 0 0 0 0 0 0 0 0 0 0 0 0 0 0
0 0 0 0 0 0 0 0 0 0 0 0 0 0 0 0 0 0 0 0 0 0 0 0 0 0 0 0 0 0 0 0 0 0 0 0 0 0 0 0 0 0 0
0 0 0 0 0 0 0 0 0 0 0 0 0 0 0 0 0 0 0 0 0 0 0 0 0 0 0 0 0 0 0 0 0 0 0 0 0 0 0 0 0 0 0
Wind_Speed
1 1 1 1 1 1 1 2 2 2 2 2 3 3 3 2 2 2 3 3 3 3 2 3 3 3 2 2 2 2 3 3 5 4 3 3 3 3 4 3 3 4 4
1 1 1 1 1 1 1 2 1 2 2 2 3 3 3 3 3 4 4 4 4 4 3 3 3 2 3 2 2 3 3 3 4 5 4 3 4 4 4 4 4 3 4
2 1 1 1 1 1 2 2 2 2 2 2 2 3 3 3 4 4 4 4 4 4 4 4 4 3 3 3 3 3 3 3 3 3 4 3 3 3 3 4 4 3 4
2 1 2 2 2 2 2 2 2 2 2 2 3 3 3 3 4 3 3 3 3 3 3 4 4 4 4 4 4 4 3 3 2 3 3 3 3 3 2 3 4 3 4
2 2 2 2 2 2 2 2 2 2 2 2 2 3 3 3 3 3 3 3 3 3 3 3 4 5 5 5 4 4 3 3 3 3 3 2 3 2 3 3 4 4 4
2 2 3 2 2 2 2 2 2 2 2 2 3 3 3 3 5 5 4 4 4 4 4 4 4 4 6 7 7 6 5 5 5 4 3 4 4 4 3 3 3 3 4
2 3 3 2 2 2 2 2 2 2 2 2 3 3 4 5 6 6 5 4 4 4 4 4 3 4 4 4 5 5 5 6 7 5 5 5 5 4 3 3 3 4 5
2 3 3 3 3 3 2 2 2 2 2 3 3 3 4 5 6 6 5 3 4 4 4 5 5 5 5 4 4 4 5 5 6 4 5 5 4 3 4 4 4 4 4
3 3 4 3 3 3 3 3 2 2 3 3 3 3 4 5 6 6 4 3 3 4 4 4 5 5 7 6 4 5 5 5 5 5 6 5 5 4 3 1 1 1 3
4 4 4 3 3 3 3 3 3 2 3 3 3 3 4 4 6 6 4 2 3 3 4 4 6 7 8 7 5 5 6 5 3 3 3 4 3 3 3 3 3 3 2
5 5 4 4 3 3 3 3 3 2 3 3 3 3 3 4 5 6 5 3 3 3 4 4 5 8 9 9 7 6 7 4 2 3 2 2 2 2 3 3 4 4 4
4 4 4 4 3 3 3 3 2 2 3 3 3 3 3 3 4 6 6 6 4 4 4 4 5 8 9 9 7 7 7 4 2 2 2 3 3 3 3 3 4 4 4
4 4 4 4 4 3 2 2 2 2 2 3 3 3 3 3 4 7 7 8 7 4 4 7 7 8 7 5 6 6 4 2 2 3 3 4 3 3 2 2 2 2 3
4 4 4 4 4 3 2 2 2 2 3 3 3 4 4 4 3 3 4 4 6 5 4 5 7 7 5 3 3 3 2 2 3 4 3 3 1 1 2 2 2 2 2
4 4 4 4 3 3 3 3 3 4 4 4 4 3 4 4 6 7 5 4 3 4 2 2 2 2 2 2 2 2 2 2 3 3 2 2 2 2 2 2 2 2 2
4 4 3 3 3 3 3 4 5 5 7 7 7 6 5 7 9 9 8 8 6 4 1 1 2 3 3 3 3 3 2 3 3 3 3 3 3 3 3 2 2 3 3
4 4 3 3 3 3 3 3 5 6 7 7 8 9 8 9 9 8 8 7 6 3 1 2 3 3 3 3 3 3 3 3 3 3 3 3 3 3 3 3 3 3 4
4 4 4 3 3 3 3 3 3 4 5 5 7 9 10 11 10 8 8 5 3 2 2 3 3 3 3 3 3 3 3 3 3 3 3 3 3 3 3 4 4 4 4
4 3 3 3 3 3 3 3 3 3 4 5 5 6 8 10 9 8 6 2 2 3 3 3 3 3 3 4 4 3 4 4 3 3 3 3 3 3 4 4 4 5 4
3 4 4 3 3 3 3 3 3 3 4 4 5 5 5 4 4 4 3 3 3 3 4 4 4 4 4 4 3 3 3 4 4 4 4 4 3 4 4 5 4 4 4
3 3 4 3 3 3 3 3 3 4 4 4 5 6 9 4 4 5 4 4 4 4 4 4 4 4 4 4 3 4 4 4 4 4 4 4 4 4 4 4 4 4 3
3 3 3 3 3 3 3 3 3 4 5 5 5 6 9 5 4 4 4 4 4 4 4 4 4 4 4 4 4 4 4 5 4 4 4 4 4 4 4 4 3 3 3
3 3 3 3 3 4 4 3 3 4 4 4 5 5 5 4 5 5 5 5 4 4 4 4 4 4 4 4 4 4 5 5 5 4 4 4 4 4 4 4 5 4 4
3 3 3 3 3 3 3 4 4 4 4 5 5 5 5 5 5 6 5 5 5 5 4 4 5 6 7 6 4 4 5 5 5 4 6 5 5 4 4 4 5 5 5
3 3 3 3 3 4 4 4 4 4 5 5 5 5 5 5 6 6 5 5 5 5 6 5 4 5 7 8 7 6 7 8 7 5 4 4 5 5 5 5 4 4 5
3 3 3 3 4 4 4 4 5 5 5 5 5 5 6 6 6 6 5 5 5 5 6 5 6 7 8 7 7 8 8 8 7 6 5 4 5 5 5 4 5 5 5
Wind_Direction
334 309 289 273 255 238 242 242 239 249 244 221 220 223 220 222 220 220 235 232 236 250 253 248 257 257 256 252 249 243 234 227 248 272 277 280 275 277 290 283 279 273 278
323 333 316 310 307 276 271 273 269 254 252 250 232 226 224 224 225 223 229 235 233 238 245 246 253 252 250 255 246 246 238 231 234 260 281 285 280 273 277 281 287 284 278
340 346 337 324 305 283 279 286 285 273 268 266 256 237 230 227 230 234 230 235 236 237 237 237 246 243 249 254 251 250 249 242 238 244 268 280 292 301 302 299 296 291 289
342 336 321 308 296 289 294 292 286 277 262 256 255 254 246 237 234 236 237 237 237 241 241 239 240 237 242 244 245 248 253 245 244 249 264 282 289 302 301 300 303 302 298
328 320 307 311 313 315 309 298 295 288 274 265 260 261 258 248 237 232 234 236 236 245 251 248 247 249 251 252 249 243 237 241 238 245 258 277 280 296 283 287 284 302 290
300 297 310 324 326 321 313 306 303 296 291 283 266 258 257 257 258 249 246 235 237 238 249 257 257 252 258 260 260 254 241 235 234 231 246 251 260 267 277 281 283 300 287
304 308 313 314 313 311 311 310 296 289 289 280 272 264 260 262 262 259 258 246 240 239 240 245 252 256 255 257 258 261 258 261 245 225 234 247 250 249 255 267 264 264 266
314 318 318 312 306 310 307 295 292 288 277 271 272 271 271 272 270 266 264 255 246 243 239 237 243 250 248 254 246 251 256 259 256 242 238 248 253 251 238 241 251 273 292
318 314 309 304 300 304 297 293 291 287 283 276 274 273 273 279 277 274 268 250 251 251 246 242 244 247 251 252 242 244 257 264 268 261 266 268 268 266 257 233 251 279 282
314 308 305 300 292 288 286 291 296 289 281 281 279 275 272 279 281 281 276 255 255 261 259 250 249 254 256 247 237 235 248 259 262 266 273 281 275 260 242 213 208 225 256
313 313 313 309 300 293 295 299 301 298 296 289 283 284 276 276 278 282 281 268 257 259 262 263 257 259 259 254 249 241 251 259 244 231 249 266 270 261 248 239 224 216 223
318 316 315 314 310 306 299 301 301 290 287 289 293 298 295 289 287 288 284 284 283 255 257 262 264 265 261 257 252 254 257 248 231 226 237 246 248 250 255 255 251 248 245
320 314 313 315 312 310 300 298 299 286 277 284 287 289 300 303 298 297 288 286 286 275 265 270 274 273 268 257 257 256 241 222 225 229 236 244 247 249 252 265 268 269 276
312 311 314 316 315 313 306 295 286 278 276 280 283 286 295 298 299 302 295 289 287 284 277 273 272 271 269 270 272 260 240 225 226 233 242 251 256 245 239 246 254 260 278
308 308 311 307 304 306 302 286 284 271 268 278 276 275 281 286 288 296 299 289 288 287 302 309 295 289 281 283 280 265 249 236 237 240 236 241 239 237 249 249 244 236 239
304 306 304 303 302 303 305 309 298 297 301 301 299 298 287 288 299 300 300 301 300 296 274 263 275 276 279 280 277 278 267 253 244 240 235 229 233 238 246 246 237 229 241
286 292 296 297 296 299 302 304 310 316 315 314 314 314 311 309 307 308 311 307 299 279 247 260 263 267 273 274 272 272 271 270 259 239 238 233 231 236 240 239 239 241 244
288 285 284 286 288 287 287 288 289 298 309 311 315 316 318 317 315 318 320 319 304 301 272 264 268 271 272 272 270 269 272 275 268 254 245 239 230 230 237 238 236 237 242
293 289 288 286 285 284 286 288 289 289 292 301 311 314 319 318 317 322 326 306 285 288 289 279 274 272 273 272 270 266 265 265 265 260 249 242 236 234 240 244 242 238 234
290 292 295 290 290 290 289 290 291 291 292 296 299 304 312 320 320 318 317 297 288 286 286 283 281 277 275 272 272 268 267 268 265 259 257 245 234 233 239 241 238 236 236
291 293 292 286 279 278 280 281 283 285 285 288 289 293 304 305 298 297 294 290 284 284 285 285 283 281 278 277 270 262 261 265 262 260 260 256 241 234 239 239 238 236 238
281 283 281 277 279 278 278 276 275 276 280 283 290 299 305 304 294 291 290 286 282 275 270 269 274 274 272 272 272 268 264 264 264 261 259 256 253 242 234 232 235 234 231
284 284 285 283 280 283 285 280 277 278 280 283 288 292 295 292 288 287 287 290 290 286 280 270 272 277 279 274 265 259 264 265 260 253 253 255 252 246 234 232 231 230 233
281 278 283 285 285 282 282 284 284 282 281 282 283 284 285 286 285 284 285 286 288 287 283 276 271 274 279 279 273 265 262 265 262 252 244 246 246 246 240 238 236 231 230
278 279 278 276 276 277 279 280 280 280 281 281 282 282 283 284 284 283 283 283 285 286 286 283 281 279 277 278 278 276 276 274 266 255 245 240 242 241 235 232 232 231 227
279 277 277 277 275 274 274 276 277 278 278 279 280 280 282 282 283 284 285 285 288 288 287 286 284 283 282 281 283 285 282 279 270 254 241 233 230 235 231 228 223 222 221